Location: Unspecified
(58.9933°N, 5.6375°E)
Time: 16:09:29
(UTC+02:00)

Cosmos 2058 - Visible Passes

Search period start: 27 May 2016 00:00
Search period end: 06 June 2016 00:00
Orbit: 564 x 587 km, 82.5° (Epoch: 26 May)

Date Brightness Start Highest point End Pass type
(mag) Time Alt. Az. Time Alt. Az. Time Alt. Az.
27 May 5.5 01:25:41 10° E 01:26:46 11° ENE 01:27:52 10° ENE visible
27 May 3.3 02:58:45 10° S 03:02:53 61° E 03:07:01 10° NNE visible
28 May 5.4 01:28:15 10° ESE 01:30:18 13° E 01:32:20 10° NE visible
28 May 3.0 03:02:22 10° S 03:06:33 76° E 03:10:44 10° NNE visible
29 May 5.2 01:31:13 10° ESE 01:33:50 16° E 01:36:26 10° NE visible
29 May 2.9 03:06:02 10° SSW 03:10:13 87° W 03:14:26 10° NNE visible
30 May 4.9 01:34:21 10° SE 01:37:23 20° E 01:40:24 10° NE visible
30 May 3.0 03:09:45 10° SSW 03:13:55 71° WNW 03:18:05 10° N visible
31 May 4.6 01:37:36 10° SE 01:40:57 24° E 01:44:19 10° NNE visible
31 May 3.3 03:13:31 10° SSW 03:17:38 57° WNW 03:21:45 10° N visible
01 Jun 4.3 01:40:56 10° SSE 01:44:32 29° E 01:48:09 10° NNE visible
01 Jun 3.6 03:17:20 10° SW 03:21:22 46° WNW 03:25:24 10° N visible
02 Jun 4.0 01:44:20 10° SSE 01:48:08 35° E 01:51:56 10° NNE visible
03 Jun 3.7 01:47:52 10° SSE 01:51:45 44° E 01:55:43 10° NNE visible
04 Jun 3.3 01:51:28 11° S 01:55:23 54° E 01:59:27 10° NNE visible
05 Jun 5.3 00:21:16 10° E 00:22:51 12° ENE 00:24:26 10° NE visible
05 Jun 3.1 01:55:05 11° S 01:59:02 68° E 02:03:10 10° NNE visible
